"Pseudo-MPEC" for C1FQZ45

Created 2026 Aug 26 0:35:03 UT using Find_Orb

Click here for an explanation of pseudo-MPECs

 
 Astrometry: 
     C1FQZ45*1C2026 08 22.34265321 43 37.654-05 36 35.57   ~8OFo 22.45GVNEOCPV00
     C1FQZ45 1C2026 08 22.34764021 43 37.042-05 36 31.57   ~8OFo 22.32GVNEOCPV00
     C1FQZ45 1C2026 08 22.35261021 43 36.386-05 36 27.97   ~8OFo 22.04GVNEOCPV00
     C1FQZ45 1C2026 08 22.35757521 43 35.774-05 36 24.37   ~8OFo 22.95GVNEOCPV00

Station data:
(V00) Kitt Peak-Bok  (N31.963125 W111.600190)  US/Arizona. Measurers T.
   Beuden, V. F. Carvajal, D. Fay, J. B. Fazekas, D. C. Fuls, A. R. Gibbs, A.
   D. Grauer, H. Gröller, J. K. Hogan, R. A. Kowalski, S. M. Larson, G. J.
   Leonard, D. Rankin, R. L. Seaman, F. C. Shelly, K. W. Wierzchoś. 2.25-m
   reflector + 4x4K mosaic CCD.

Orbital elements:  C1FQZ45
   Perihelion 2027 Feb 1.886535 +/- 146 TT = 21:16:36.6 (JD 2461438.386535)
Epoch 2026 Aug 22.0 TT = JDT 2461274.5   Earth MOID: 0.4128      AutoNEOCP
M 298.445401258 +/- 54              (J2000 ecliptic)
n   0.375592776 +/- 0.263           Peri.  109.788031 +/- 100
a   1.902499545 +/- 0.887           Node   319.879866 +/- 37
e   0.34339257 +/- 0.284            Incl.   23.080142 +/- 24
P   2.624/958.467d         H 21.56  G  0.15   U 11.9  SR
q 1.249195335 +/- 0.649    Q 2.555803755 +/- 30.2
From 4 observations 2026 Aug. 22 (21.5 min); mean residual 0".13
Residuals in arcseconds: 
260822 V00  .08-  .12-    260822 V00  .19-  .04+    
260822 V00  .21+  .16+    260822 V00  .06+  .08-    

Ephemerides (geocentric):
Date (UTC) HH   RA             Dec           delta  r     elong  mag " sig PA
---- --------  ------------   ------------  ------ ------ -----  --- --------
2026 08 26 01  21 36 00.991   -04 50 22.93  .78079 1.7821 168.2 22.8  24d  81
2026 08 26 02  21 35 55.833   -04 49 51.74  .78069 1.7819 168.1 22.8  24d  83
2026 08 26 03  21 35 50.675   -04 49 20.56  .78059 1.7817 168.1 22.8  24d  85
2026 08 26 04  21 35 45.517   -04 48 49.38  .78049 1.7815 168.0 22.8  24d  85
2026 08 26 05  21 35 40.360   -04 48 18.20  .78039 1.7813 168.0 22.8  24d  86
2026 08 26 06  21 35 35.202   -04 47 47.02  .78029 1.7811 167.9 22.8  24d  86
2026 08 26 07  21 35 30.045   -04 47 15.84  .78020 1.7809 167.9 22.8  24d  87
2026 08 26 08  21 35 24.887   -04 46 44.66  .78010 1.7807 167.8 22.8  24d  87
2026 08 26 09  21 35 19.730   -04 46 13.48  .78000 1.7806 167.8 22.8  24d  87
2026 08 26 10  21 35 14.574   -04 45 42.30  .77990 1.7804 167.7 22.8  24d  87
2026 08 26 11  21 35 09.417   -04 45 11.12  .77981 1.7802 167.7 22.8  24d  87
2026 08 26 12  21 35 04.260   -04 44 39.95  .77971 1.7800 167.6 22.8  24d  87
2026 08 26 13  21 34 59.104   -04 44 08.77  .77961 1.7798 167.6 22.8  24d  87
2026 08 26 14  21 34 53.948   -04 43 37.59  .77952 1.7796 167.5 22.8  24d  87
2026 08 26 15  21 34 48.793   -04 43 06.42  .77942 1.7794 167.5 22.8  24d  87
2026 08 26 16  21 34 43.637   -04 42 35.25  .77933 1.7792 167.4 22.8  24d  88
2026 08 26 17  21 34 38.482   -04 42 04.07  .77924 1.7791 167.4 22.8  24d  88
2026 08 26 18  21 34 33.328   -04 41 32.90  .77914 1.7789 167.3 22.8  24d  88
2026 08 26 19  21 34 28.173   -04 41 01.73  .77905 1.7787 167.3 22.8  23d  88
2026 08 26 20  21 34 23.019   -04 40 30.56  .77896 1.7785 167.2 22.8  23d  88
2026 08 26 21  21 34 17.865   -04 39 59.39  .77886 1.7783 167.2 22.8  23d  88
2026 08 26 22  21 34 12.712   -04 39 28.22  .77877 1.7781 167.1 22.8  23d  88
2026 08 26 23  21 34 07.559   -04 38 57.05  .77868 1.7779 167.1 22.8  23d  88
2026 08 27 00  21 34 02.406   -04 38 25.89  .77859 1.7777 167.0 22.8  23d  88
2026 08 27 01  21 33 57.254   -04 37 54.72  .77850 1.7776 167.0 22.8  23d  88
2026 08 27 02  21 33 52.102   -04 37 23.56  .77841 1.7774 166.9 22.8  23d  88
2026 08 27 03  21 33 46.950   -04 36 52.39  .77832 1.7772 166.9 22.8  23d  88
2026 08 27 04  21 33 41.799   -04 36 21.23  .77823 1.7770 166.8 22.8  23d  88
2026 08 27 05  21 33 36.649   -04 35 50.07  .77814 1.7768 166.8 22.8  23d  88
2026 08 27 06  21 33 31.499   -04 35 18.91  .77806 1.7766 166.7 22.8  23d  88
2026 08 27 07  21 33 26.349   -04 34 47.76  .77797 1.7764 166.7 22.8  23d  88
2026 08 27 08  21 33 21.200   -04 34 16.60  .77788 1.7762 166.6 22.8  23d  88
2026 08 27 09  21 33 16.051   -04 33 45.44  .77779 1.7761 166.6 22.8  23d  88
2026 08 27 10  21 33 10.903   -04 33 14.29  .77771 1.7759 166.5 22.8  23d  88
2026 08 27 11  21 33 05.756   -04 32 43.14  .77762 1.7757 166.5 22.8  23d  88
2026 08 27 12  21 33 00.608   -04 32 11.99  .77754 1.7755 166.4 22.8  23d  88
2026 08 27 13  21 32 55.462   -04 31 40.84  .77745 1.7753 166.3 22.8  23d  88
2026 08 27 14  21 32 50.316   -04 31 09.69  .77737 1.7751 166.3 22.8  23d  88
2026 08 27 15  21 32 45.170   -04 30 38.55  .77728 1.7749 166.2 22.8  23d  88
2026 08 27 16  21 32 40.026   -04 30 07.40  .77720 1.7747 166.2 22.8  23d  88
2026 08 27 17  21 32 34.881   -04 29 36.26  .77712 1.7746 166.1 22.8  23d  88
2026 08 27 18  21 32 29.738   -04 29 05.12  .77703 1.7744 166.1 22.8  23d  88
2026 08 27 19  21 32 24.595   -04 28 33.98  .77695 1.7742 166.0 22.8  23d  88
2026 08 27 20  21 32 19.452   -04 28 02.84  .77687 1.7740 166.0 22.8  23d  88
2026 08 27 21  21 32 14.311   -04 27 31.71  .77679 1.7738 165.9 22.8  23d  88
2026 08 27 22  21 32 09.170   -04 27 00.57  .77671 1.7736 165.9 22.8  23d  87
2026 08 27 23  21 32 04.029   -04 26 29.44  .77663 1.7734 165.8 22.8  24d  87
2026 08 28 00  21 31 58.889   -04 25 58.31  .77655 1.7732 165.8 22.8  24d  87